Radiation Dose at Monitoring Post of Fukushima Daini Nuclear Power Station
Date,Time,MP-1(microSv/h),MP-2(microSv/h),MP-3(microSv/h),MP-4(microSv/h),MP-5(microSv/h),MP-6(microSv/h),MP-7(microSv/h),Wind Direction,Wind Velocity(m/s),Rain
2019/10/13,00:00,0.189,0.179,0.275,0.268,0.269,0.152,0.113,south-southeast,22.3,Yes
2019/10/13,00:10,0.192,0.179,0.279,0.272,0.272,0.150,0.111,southeast,21.9,Yes
2019/10/13,00:20,0.191,0.178,0.278,0.270,0.270,0.148,0.108,southeast,21.6,Yes
2019/10/13,00:30,0.190,0.175,0.278,0.269,0.267,0.148,0.106,southeast,21.1,Yes
2019/10/13,00:40,0.194,0.179,0.282,0.272,0.272,0.150,0.108,south-southeast,19.2,Yes
2019/10/13,00:50,0.191,0.177,0.279,0.271,0.270,0.150,0.107,south,15.6,Yes
2019/10/13,01:00,0.191,0.176,0.281,0.270,0.272,0.148,0.104,south-southwest,11.2,Yes
2019/10/13,01:10,0.188,0.173,0.277,0.267,0.269,0.147,0.102,south-southwest,9.0,Yes
2019/10/13,01:20,0.188,0.171,0.277,0.264,0.267,0.144,0.098,west-southwest,8.1,Yes
2019/10/13,01:30,0.185,0.168,0.274,0.262,0.267,0.142,0.096,west,10.7,Yes
2019/10/13,01:40,0.182,0.166,0.272,0.258,0.261,0.140,0.094,west-northwest,7.4,No
2019/10/13,01:50,0.182,0.164,0.271,0.258,0.264,0.138,0.092,west,11.8,No
2019/10/13,02:00,0.179,0.161,0.268,0.254,0.260,0.137,0.091,west,13.3,No
2019/10/13,02:10,0.179,0.161,0.269,0.256,0.260,0.134,0.088,west-northwest,14.0,No
2019/10/13,02:20,0.177,0.158,0.266,0.253,0.258,0.134,0.087,west-northwest,14.8,No
2019/10/13,02:30,0.177,0.157,0.268,0.254,0.257,0.135,0.087,west-northwest,11.2,No
2019/10/13,02:40,0.178,0.156,0.265,0.252,0.259,0.133,0.087,west-northwest,9.6,No
2019/10/13,02:50,0.177,0.157,0.266,0.251,0.257,0.133,0.086,west-northwest,11.7,No
2019/10/13,03:00,0.178,0.155,0.265,0.250,0.258,0.132,0.085,west-northwest,12.6,No
2019/10/13,03:10,0.177,0.156,0.267,0.250,0.253,0.133,0.085,west-northwest,11.5,No
2019/10/13,03:20,0.177,0.155,0.266,0.253,0.258,0.133,0.084,west-northwest,14.6,No
2019/10/13,03:30,0.177,0.154,0.265,0.250,0.255,0.133,0.084,west-northwest,10.7,No
2019/10/13,03:40,0.176,0.156,0.266,0.251,0.255,0.133,0.084,west-northwest,9.6,No
2019/10/13,03:50,0.177,0.155,0.267,0.249,0.257,0.133,0.085,west-northwest,8.7,No
2019/10/13,04:00,0.176,0.156,0.267,0.252,0.256,0.133,0.084,west-northwest,13.7,No
2019/10/13,04:10,0.178,0.154,0.267,0.249,0.258,0.132,0.084,northwest,11.1,No
2019/10/13,04:20,0.177,0.156,0.267,0.251,0.254,0.134,0.083,west-northwest,11.7,No
2019/10/13,04:30,0.178,0.156,0.266,0.251,0.255,0.133,0.083,northwest,12.3,No
2019/10/13,04:40,0.179,0.157,0.266,0.250,0.257,0.133,0.084,west-northwest,12.3,Yes
2019/10/13,04:50,0.177,0.155,0.268,0.251,0.254,0.133,0.084,northwest,10.4,Yes
2019/10/13,05:00,0.178,0.156,0.266,0.251,0.257,0.133,0.084,northwest,10.7,No
2019/10/13,05:10,0.178,0.157,0.269,0.252,0.256,0.134,0.084,west-northwest,10.7,Yes
2019/10/13,05:20,0.180,0.157,0.266,0.250,0.257,0.133,0.084,west-northwest,10.3,No
2019/10/13,05:30,0.179,0.157,0.267,0.252,0.257,0.134,0.085,northwest,10.9,No
2019/10/13,05:40,0.179,0.158,0.267,0.251,0.256,0.134,0.084,northwest,9.5,No
2019/10/13,05:50,0.179,0.157,0.268,0.253,0.256,0.133,0.084,northwest,7.4,No
2019/10/13,06:00,0.178,0.157,0.268,0.251,0.256,0.134,0.084,northwest,11.7,No
2019/10/13,06:10,0.180,0.157,0.267,0.252,0.257,0.134,0.085,northwest,11.7,No
2019/10/13,06:20,0.178,0.156,0.269,0.253,0.255,0.135,0.084,northwest,10.7,No
2019/10/13,06:30,0.179,0.158,0.267,0.251,0.258,0.134,0.085,northwest,11.5,No
2019/10/13,06:40,0.178,0.158,0.269,0.252,0.256,0.135,0.084,northwest,8.1,No
2019/10/13,06:50,0.180,0.158,0.267,0.249,0.258,0.134,0.083,northwest,6.2,No
2019/10/13,07:00,0.179,0.157,0.269,0.253,0.258,0.134,0.084,northwest,7.8,No
2019/10/13,07:10,0.179,0.158,0.269,0.251,0.255,0.134,0.084,northwest,7.4,No
2019/10/13,07:20,0.181,0.158,0.267,0.250,0.258,0.133,0.084,west-northwest,8.2,No
2019/10/13,07:30,0.178,0.157,0.269,0.251,0.256,0.135,0.084,northwest,9.5,No
2019/10/13,07:40,0.180,0.159,0.267,0.251,0.256,0.134,0.084,north-northwest,6.1,No
2019/10/13,07:50,0.180,0.157,0.269,0.253,0.259,0.134,0.084,northwest,3.1,No
2019/10/13,08:00,0.178,0.158,0.268,0.251,0.255,0.135,0.083,northwest,3.5,No
2019/10/13,08:10,0.181,0.159,0.267,0.251,0.255,0.133,0.083,west-northwest,3.4,No
2019/10/13,08:20,0.180,0.157,0.269,0.252,0.257,0.134,0.083,west,3.0,No
2019/10/13,08:30,0.177,0.158,0.267,0.251,0.257,0.135,0.084,west,4.2,No
2019/10/13,08:40,0.179,0.159,0.268,0.250,0.255,0.135,0.083,west,2.9,No
2019/10/13,08:50,0.179,0.158,0.267,0.253,0.258,0.134,0.083,west,3.1,No
2019/10/13,09:00,0.178,0.158,0.266,0.251,0.259,0.136,0.084,west-northwest,2.7,No
2019/10/13,09:10,0.179,0.159,0.268,0.251,0.253,0.134,0.084,west-northwest,0.8,No
2019/10/13,09:20,0.180,0.158,0.267,0.251,0.257,0.135,0.084,northwest,2.5,No
2019/10/13,09:30,0.178,0.157,0.267,0.253,0.258,0.135,0.084,northwest,4.6,No
2019/10/13,09:40,0.177,0.158,0.270,0.253,0.256,0.135,0.083,northwest,3.2,No
2019/10/13,09:50,0.177,0.158,0.268,0.251,0.256,0.135,0.083,northwest,4.4,No
2019/10/13,10:00,0.178,0.158,0.267,0.250,0.255,0.134,0.084,northwest,6.9,No
2019/10/13,10:10,0.177,0.159,0.271,0.252,0.256,0.135,0.084,west-northwest,7.6,No
2019/10/13,10:20,0.178,0.158,0.269,0.252,0.257,0.135,0.084,west-northwest,7.2,No
2019/10/13,10:30,0.178,0.158,0.266,0.252,0.256,0.135,0.084,west-northwest,7.5,No
2019/10/13,10:40,0.178,0.158,0.269,0.251,0.256,0.136,0.085,northwest,7.6,No
2019/10/13,10:50,0.179,0.158,0.270,0.253,0.256,0.135,0.084,west-northwest,6.6,No
2019/10/13,11:00,0.179,0.158,0.267,0.252,0.256,0.135,0.083,northwest,9.0,No
2019/10/13,11:10,0.179,0.158,0.266,0.254,0.256,0.136,0.085,northwest,7.9,No
2019/10/13,11:20,0.179,0.159,0.270,0.253,0.257,0.136,0.084,west-northwest,7.9,No
2019/10/13,11:30,0.179,0.158,0.269,0.254,0.258,0.135,0.084,northwest,8.3,No
2019/10/13,11:40,0.179,0.159,0.267,0.253,0.257,0.136,0.084,northwest,9.8,No
2019/10/13,11:50,0.178,0.158,0.267,0.252,0.257,0.137,0.084,northwest,9.2,No
2019/10/13,12:00,0.180,0.159,0.266,0.254,0.257,0.135,0.085,north-northwest,7.2,No
2019/10/13,12:10,0.178,0.159,0.267,0.254,0.257,0.136,0.084,north-northwest,6.0,No
2019/10/13,12:20,0.179,0.158,0.268,0.253,0.256,0.135,0.086,north-northwest,6.7,No
2019/10/13,12:30,0.179,0.159,0.269,0.254,0.257,0.135,0.085,west-northwest,8.4,No
2019/10/13,12:40,0.180,0.158,0.267,0.253,0.257,0.136,0.084,west-northwest,7.6,No
2019/10/13,12:50,0.179,0.157,0.269,0.253,0.260,0.135,0.084,west,7.5,No
2019/10/13,13:00,0.180,0.159,0.273,0.252,0.258,0.136,0.085,west-northwest,6.7,No
2019/10/13,13:10,0.179,0.158,0.271,0.253,0.258,0.136,0.084,west-northwest,7.2,No
2019/10/13,13:20,0.179,0.159,0.270,0.253,0.258,0.136,0.085,west-northwest,6.1,No
2019/10/13,13:30,0.180,0.158,0.270,0.253,0.257,0.136,0.084,west-northwest,8.1,No
2019/10/13,13:40,0.180,0.158,0.268,0.253,0.258,0.136,0.085,west-northwest,7.0,No
2019/10/13,13:50,0.180,0.158,0.268,0.253,0.256,0.136,0.084,west-northwest,8.2,No
2019/10/13,14:00,0.179,0.159,0.269,0.252,0.257,0.136,0.084,west-northwest,7.9,No
2019/10/13,14:10,0.179,0.158,0.269,0.252,0.258,0.136,0.083,west-northwest,8.7,No
2019/10/13,14:20,0.179,0.159,0.270,0.253,0.257,0.137,0.084,west-northwest,7.6,No
2019/10/13,14:30,0.181,0.160,0.272,0.256,0.257,0.136,0.086,west-northwest,9.0,No
2019/10/13,14:40,0.182,0.161,0.270,0.255,0.260,0.137,0.085,west-northwest,8.1,No
2019/10/13,14:50,0.181,0.160,0.272,0.253,0.261,0.136,0.084,northwest,8.7,No
2019/10/13,15:00,0.180,0.159,0.272,0.255,0.260,0.136,0.085,northwest,6.3,No
2019/10/13,15:10,0.179,0.161,0.270,0.256,0.259,0.137,0.084,northwest,6.4,No
2019/10/13,15:20,0.181,0.160,0.272,0.252,0.263,0.136,0.084,west-northwest,6.1,No
2019/10/13,15:30,0.182,0.160,0.273,0.255,0.259,0.136,0.085,northwest,7.3,No
2019/10/13,15:40,0.180,0.161,0.270,0.253,0.257,0.136,0.085,northwest,9.2,No
2019/10/13,15:50,0.182,0.159,0.273,0.254,0.262,0.137,0.084,northwest,10.6,No
2019/10/13,16:00,0.183,0.160,0.271,0.256,0.260,0.137,0.085,northwest,10.1,No
2019/10/13,16:10,0.180,0.159,0.272,0.255,0.259,0.137,0.085,northwest,6.6,No
2019/10/13,16:20,0.182,0.160,0.273,0.257,0.262,0.136,0.084,north-northwest,5.9,No
2019/10/13,16:30,0.181,0.160,0.270,0.255,0.259,0.137,0.085,northwest,6.1,No
2019/10/13,16:40,0.182,0.161,0.273,0.258,0.262,0.137,0.085,northwest,7.0,No
2019/10/13,16:50,0.182,0.161,0.271,0.255,0.260,0.137,0.084,northwest,6.4,No
2019/10/13,17:00,0.181,0.160,0.273,0.256,0.259,0.137,0.085,northwest,5.4,No
2019/10/13,17:10,0.182,0.161,0.271,0.255,0.259,0.137,0.085,northwest,5.3,No
2019/10/13,17:20,0.181,0.161,0.273,0.256,0.260,0.137,0.085,northwest,6.9,No
2019/10/13,17:30,0.183,0.160,0.272,0.255,0.260,0.138,0.085,west-northwest,7.4,No
2019/10/13,17:40,0.180,0.161,0.273,0.256,0.260,0.137,0.084,northwest,7.6,No
2019/10/13,17:50,0.183,0.160,0.272,0.256,0.260,0.138,0.085,west-northwest,7.7,No
2019/10/13,18:00,0.181,0.162,0.272,0.257,0.261,0.138,0.085,northwest,6.2,No
2019/10/13,18:10,0.182,0.161,0.271,0.255,0.261,0.136,0.085,northwest,7.0,No
2019/10/13,18:20,0.181,0.160,0.272,0.256,0.260,0.137,0.085,northwest,5.6,No
2019/10/13,18:30,0.182,0.161,0.273,0.255,0.259,0.136,0.085,northwest,4.9,No
2019/10/13,18:40,0.181,0.161,0.273,0.256,0.260,0.137,0.085,northwest,5.2,No
2019/10/13,18:50,0.183,0.161,0.273,0.256,0.259,0.137,0.085,northwest,5.7,No
2019/10/13,19:00,0.180,0.159,0.273,0.257,0.261,0.137,0.085,northwest,4.6,No
2019/10/13,19:10,0.182,0.161,0.272,0.256,0.259,0.137,0.085,northwest,4.2,No
2019/10/13,19:20,0.180,0.161,0.274,0.256,0.260,0.138,0.085,northwest,5.3,No
2019/10/13,19:30,0.182,0.160,0.273,0.256,0.260,0.137,0.085,northwest,5.3,No
2019/10/13,19:40,0.181,0.161,0.274,0.256,0.260,0.137,0.085,northwest,5.3,No
2019/10/13,19:50,0.182,0.160,0.273,0.257,0.259,0.138,0.085,northwest,4.7,No
2019/10/13,20:00,0.182,0.160,0.273,0.256,0.260,0.137,0.085,north-northwest,4.1,No
2019/10/13,20:10,0.182,0.160,0.273,0.256,0.261,0.137,0.085,north-northwest,3.6,No
2019/10/13,20:20,0.182,0.160,0.272,0.258,0.260,0.138,0.086,north,3.8,No
2019/10/13,20:30,0.182,0.162,0.274,0.256,0.262,0.138,0.085,north,4.5,No
2019/10/13,20:40,0.183,0.160,0.273,0.257,0.260,0.139,0.085,north,5.0,No
2019/10/13,20:50,0.182,0.160,0.274,0.256,0.261,0.138,0.085,north,3.9,No
2019/10/13,21:00,0.182,0.161,0.273,0.256,0.261,0.137,0.085,north,4.5,No
2019/10/13,21:10,0.181,0.161,0.272,0.256,0.260,0.138,0.085,north,5.1,No
2019/10/13,21:20,0.182,0.162,0.274,0.256,0.262,0.138,0.085,north-northwest,6.0,No
2019/10/13,21:30,0.182,0.160,0.274,0.257,0.259,0.138,0.085,north-northwest,6.1,No
2019/10/13,21:40,0.182,0.161,0.273,0.256,0.261,0.138,0.086,north-northwest,6.4,No
2019/10/13,21:50,0.182,0.162,0.272,0.257,0.259,0.138,0.085,north-northwest,6.3,No
2019/10/13,22:00,0.182,0.161,0.272,0.257,0.260,0.137,0.086,north-northwest,6.7,No
2019/10/13,22:10,0.182,0.161,0.275,0.256,0.261,0.138,0.085,north-northwest,7.0,No
2019/10/13,22:20,0.182,0.162,0.273,0.257,0.260,0.138,0.085,north-northwest,6.7,No
2019/10/13,22:30,0.181,0.160,0.274,0.256,0.261,0.139,0.085,north-northwest,7.1,No
2019/10/13,22:40,0.182,0.162,0.273,0.257,0.260,0.138,0.085,north-northwest,7.3,No
2019/10/13,22:50,0.182,0.161,0.274,0.256,0.259,0.138,0.086,north-northwest,6.8,No
2019/10/13,23:00,0.184,0.162,0.272,0.256,0.261,0.137,0.085,north-northwest,6.8,No
2019/10/13,23:10,0.182,0.161,0.273,0.256,0.260,0.138,0.085,north-northwest,7.1,No
2019/10/13,23:20,0.182,0.161,0.273,0.256,0.260,0.138,0.085,north-northwest,7.0,No
2019/10/13,23:30,0.182,0.161,0.273,0.256,0.262,0.139,0.085,north-northwest,6.7,No
2019/10/13,23:40,0.183,0.160,0.274,0.258,0.260,0.139,0.085,north-northwest,6.4,No
2019/10/13,23:50,0.182,0.161,0.275,0.256,0.261,0.137,0.085,north-northwest,6.7,No
